Flag for United Kingdom

Past Weather in Stornoway, Scotland, United Kingdom — Yesterday and Last 2 Weeks

Now
54 °F

Passing clouds.


Feels Like: 53 °F
Forecast: 58 / 54 °F
Wind: 5 mph from Southwest

Location: Stornoway

Current Time: Jul 14, 2020 at 11:51:14 pm

Latest Report: Jul 14, 2020 at 11:20 pm


Visibility: N/A

Pressure: 29.86 "Hg

Humidity: 100%

Dew Point: 54 °F

Location of StornowayLocation

Past Weather in Stornoway — Graph

°F

Stornoway Temperature Yesterday

Maximum temperature yesterday: 59 °F (at 11:20 am)
Minimum temperature yesterday: 52 °F (at 8:50 pm)
Average temperature yesterday: 55 °F

High & Low Weather Summary for the Past Weeks

 TemperatureHumidityPressure
High61 °F (Jul 12, 4:20 pm)100% (Jun 29, 10:50 pm)30.24 "Hg (Jun 29, 10:50 pm)
Low39 °F (Jul 8, 1:50 am)44% (Jul 8, 4:20 pm)29.33 "Hg (Jul 5, 12:50 am)
Average53 °F82%29.85 "Hg
* Reported Jun 29 10:20 pm — Jul 14 10:20 pm, Stornoway. Weather by CustomWeather, © 2020

Note: Actual official high and low records may vary slightly from our data, if they occured in-between our weather recording intervals... More about our weather records

Stornoway Weather History for the Previous 24 Hours

Scroll right to see more
 ConditionsComfort  
Time TempWeatherWind HumidityBarometerVisibility
10:20 pm
Tue, Jul 14
54 °FPassing clouds.5 mph100%29.86 "HgN/A
9:50 pm54 °FScattered clouds.5 mph94%29.86 "HgN/A
9:20 pm55 °FLight rain. Overcast.6 mph88%29.86 "Hg4 mi
8:50 pm55 °FPartly sunny.6 mph88%29.86 "HgN/A
8:20 pm57 °FBroken clouds.9 mph82%29.86 "HgN/A
7:50 pm57 °FScattered clouds.9 mph88%29.86 "HgN/A
7:20 pm57 °FCloudy.9 mph88%29.86 "HgN/A
6:50 pm55 °FMostly cloudy.9 mph94%29.86 "HgN/A
6:20 pm57 °FMostly cloudy.10 mph88%29.86 "HgN/A
5:50 pm57 °FMostly cloudy.9 mph88%29.86 "HgN/A
5:20 pm59 °FMostly cloudy.10 mph82%29.86 "HgN/A
4:50 pm59 °FBroken clouds.7 mph77%29.86 "HgN/A
4:20 pm59 °FBroken clouds.8 mph77%29.86 "HgN/A
3:50 pm59 °FBroken clouds.7 mph77%29.86 "HgN/A
3:20 pm61 °FPartly sunny.7 mph72%29.86 "HgN/A
2:50 pm59 °FPartly sunny.3 mph77%29.89 "HgN/A
2:20 pm57 °FBroken clouds.6 mph82%29.89 "HgN/A
1:50 pm57 °FBroken clouds.10 mph82%29.89 "HgN/A
1:20 pm59 °FBroken clouds.6 mph72%29.89 "HgN/A
12:50 pm57 °FBroken clouds.7 mph77%29.89 "HgN/A
12:20 pm55 °FBroken clouds.5 mph88%29.89 "HgN/A
11:50 am55 °FScattered showers. Partly sunny.8 mph82%29.92 "HgN/A
11:20 am57 °FPartly sunny.10 mph77%29.92 "HgN/A
10:50 am55 °FPartly sunny.12 mph82%29.92 "HgN/A
10:20 am55 °FPartly sunny.10 mph82%29.92 "HgN/A
9:50 am55 °FScattered showers. Partly sunny.9 mph88%29.92 "HgN/A
9:20 am54 °FSprinkles. Partly sunny.12 mph94%29.92 "HgN/A
8:50 am54 °FSprinkles. Partly sunny.12 mph94%29.92 "HgN/A
8:20 am54 °FSprinkles. Partly sunny.14 mph88%29.92 "HgN/A
7:50 am54 °FScattered showers. Partly sunny.12 mph88%29.92 "HgN/A
7:20 am54 °FSprinkles. Partly sunny.10 mph88%29.92 "HgN/A
6:50 am52 °FScattered showers. Scattered clouds.14 mph94%29.92 "HgN/A
6:20 am52 °FScattered showers. Scattered clouds.10 mph94%29.92 "HgN/A
5:50 am52 °FScattered clouds.12 mph94%29.92 "HgN/A
12:50 am52 °FPartly cloudy.15 mph100%29.95 "Hg4 mi
12:20 am52 °FPartly cloudy.15 mph100%29.95 "Hg4 mi
11:50 pm
Mon, Jul 13
52 °FPartly cloudy.13 mph100%29.95 "Hg2 mi
11:20 pm52 °FLight rain. Passing clouds.15 mph100%29.95 "Hg4 mi
Weather by CustomWeather, © 2020

See weather overview